NWS 02 current weather conditions

sailwx.info

Wind from 314 at 2 knots

Air temperature 30.8° C
Dewpoint 26.6° C

Last reported at 2020-Jul-10 02:20 UTC.
Time now 2020-Jul-10 03:11 UTC

Location: N 26°22' W 080°06'.
View on Google Maps.

See reports from other nearby stations

  
Tides and Currents Weather Stations Pressure Air Temp Water Temp Dewpoint Dewpoint Depression Visibility Wind Speed Wind Dir Waves Ship Positions
date/time (UTC)wind fromknots sea level pressurealtimeterstation pressurevisibilityair tempwater tempwave heightnotes
2020-Jul-10 02:20 314 2 30.8
2020-Jul-10 02:15 050 0 30.9
2020-Jul-10 02:10 057 2 30.8
2020-Jul-10 02:05 007 1 30.8
2020-Jul-10 02:00 022 2 30.8
2020-Jul-10 01:55 036 2 30.7
2020-Jul-10 01:50 345 3 30.7
2020-Jul-10 01:45 342 0 30.7
2020-Jul-10 01:40 139 0 30.7
2020-Jul-10 01:35 243 2 30.7
2020-Jul-10 01:30 235 1 30.7
2020-Jul-10 01:25 090 0 30.6
2020-Jul-10 01:20 051 2 30.5
2020-Jul-10 01:15 052 1 30.5
2020-Jul-10 01:10 252 2 30.5
2020-Jul-10 01:05 287 1 30.5
2020-Jul-10 01:00 030 2 30.5
2020-Jul-10 00:55 307 5 30.4
2020-Jul-10 00:50 279 8 30.4
2020-Jul-10 00:45 102 2 30.4
2020-Jul-10 00:40 058 2 30.4
2020-Jul-10 00:35 304 3 30.4
2020-Jul-10 00:30 293 2 30.5
2020-Jul-10 00:25 041 3 30.5
2020-Jul-10 00:20 288 2 30.4
2020-Jul-10 00:15 332 4 30.5
2020-Jul-10 00:10 291 3 30.5
2020-Jul-10 00:05 289 3 30.5
2020-Jul-10 00:00 30.6
2020-Jul-09 23:55 324 7 30.6
2020-Jul-09 23:50 250 4 30.7
2020-Jul-09 23:45 301 2 30.8
2020-Jul-09 23:40 034 2 30.9
2020-Jul-09 23:35 289 7 31.0
2020-Jul-09 23:30 008 3 31.2
2020-Jul-09 23:25 028 3 31.3
2020-Jul-09 23:20 038 5 31.5
2020-Jul-09 23:15 051 3 31.4
2020-Jul-09 23:10 330 3 31.4
2020-Jul-09 23:05 348 3 31.3
2020-Jul-09 23:00 345 4 31.4
2020-Jul-09 22:54 011 4 31.4
2020-Jul-09 22:49 027 3 31.4
2020-Jul-09 22:44 358 4 31.5
2020-Jul-09 22:39 334 4 31.4
2020-Jul-09 22:34 304 4 31.8
2020-Jul-09 22:29 296 3 32.0
2020-Jul-09 22:24 301 5 31.8
2020-Jul-09 22:19 210 0 32.1
2020-Jul-09 22:14 355 1 32.3
2020-Jul-09 22:09 293 2 32.3
2020-Jul-09 22:04 040 2 32.1
2020-Jul-09 21:59 044 2 32.4
2020-Jul-09 21:54 002 6 32.1
2020-Jul-09 21:49 034 3 32.3
2020-Jul-09 21:44 337 2 32.0
2020-Jul-09 21:39 049 6 32.0
2020-Jul-09 21:34 345 3 31.8
2020-Jul-09 21:29 001 2 31.9
2020-Jul-09 21:24 359 2 31.9
2020-Jul-09 21:19 317 4 31.9
2020-Jul-09 21:14 310 7 31.8
2020-Jul-09 21:09 334 2 31.7
2020-Jul-09 21:04 344 3 31.8
2020-Jul-09 20:59 295 2 31.8
2020-Jul-09 20:54 011 3 31.8
2020-Jul-09 20:49 308 1 31.8
2020-Jul-09 20:44 336 2 31.8
2020-Jul-09 20:39 026 4 31.9
2020-Jul-09 20:34 346 2 32.3
2020-Jul-09 20:29 018 2 32.3
2020-Jul-09 20:24 054 4 32.8
2020-Jul-09 20:19 007 3 33.2
2020-Jul-09 20:14 286 2 33.2
2020-Jul-09 20:09 069 1 34.3
2020-Jul-09 20:04 354 2 34.9
2020-Jul-09 19:54 069 1 34.3
2020-Jul-09 19:49 007 3 33.2
2020-Jul-09 19:44 144 1 35.0
2020-Jul-09 19:39 114 2 35.8
2020-Jul-09 19:34 008 2 35.5
2020-Jul-09 19:29 211 1 36.1
2020-Jul-09 19:24 198 1 35.3
2020-Jul-09 19:19 195 5 34.8
2020-Jul-09 19:14 191 5 34.6
2020-Jul-09 19:09 180 4 34.6
2020-Jul-09 19:04 183 2 34.4
2020-Jul-09 18:59 192 3 33.9
2020-Jul-09 18:54 174 4 34.7
2020-Jul-09 18:49 186 3 33.9
2020-Jul-09 18:44 196 5 33.6
2020-Jul-09 18:39 200 7 33.4
2020-Jul-09 18:34 187 3 33.7
2020-Jul-09 18:29 203 3 34.1
2020-Jul-09 18:24 217 3 34.3
2020-Jul-09 18:19 165 5 34.0
2020-Jul-09 18:14 139 0 34.3
2020-Jul-09 18:09 174 2 34.1
2020-Jul-09 18:04 129 3 34.2
2020-Jul-09 17:59 127 2 34.3
2020-Jul-09 17:53 176 2 33.4
2020-Jul-09 17:48 203 5 33.4
2020-Jul-09 17:43 240 4 33.7
2020-Jul-09 17:38 140 3 33.7
2020-Jul-09 17:33 147 3 33.5
2020-Jul-09 17:28 206 2 33.6
2020-Jul-09 17:23 097 4 33.8
2020-Jul-09 17:18 116 2 33.4
2020-Jul-09 17:13 134 5 33.6
2020-Jul-09 17:08 169 3 33.3
2020-Jul-09 17:03 172 0 33.5
2020-Jul-09 15:43 149 3 31.8
2020-Jul-09 15:23 179 3 31.8
2020-Jul-09 15:18 169 2 31.7
2020-Jul-09 15:13 167 2 31.5
2020-Jul-09 15:08 201 2 31.3
2020-Jul-09 15:03 156 2 31.2
2020-Jul-09 14:58 199 1 31.0
2020-Jul-09 14:53 133 5 30.7
2020-Jul-09 14:48 184 2 30.6
2020-Jul-09 14:43 182 4 30.5
2020-Jul-09 14:38 182 2 30.5
2020-Jul-09 14:33 135 0 30.5
2020-Jul-09 14:28 187 2 30.4
2020-Jul-09 14:23 171 4 30.2
2020-Jul-09 14:18 210 2 30.2
2020-Jul-09 14:13 182 2 29.9
2020-Jul-09 14:08 178 4 30.1
2020-Jul-09 14:03 209 3 30.0
2020-Jul-09 13:58 176 3 30.0
2020-Jul-09 13:53 169 5 30.1
2020-Jul-09 13:48 171 6 29.7
2020-Jul-09 13:43 201 2 29.7
2020-Jul-09 13:38 193 5 29.4
2020-Jul-09 13:33 217 1 29.5
2020-Jul-09 13:28 183 2 29.3
2020-Jul-09 13:23 187 1 29.2
2020-Jul-09 13:18 180 3 28.1
2020-Jul-09 13:13 198 1 29.1
2020-Jul-09 13:08 222 4 29.0
2020-Jul-09 13:03 231 3 27.8
2020-Jul-09 12:58 206 2 28.7
2020-Jul-09 12:52 174 1 28.6
2020-Jul-09 12:47 149 2 28.4
2020-Jul-09 12:42 190 3 28.4
2020-Jul-09 12:37 197 1 28.2
2020-Jul-09 12:32 180 3 28.1
2020-Jul-09 12:27 209 3 28.0
2020-Jul-09 12:22 190 3 27.9
2020-Jul-09 12:17 231 3 27.8
2020-Jul-09 12:12 200 4 27.6
2020-Jul-09 12:07 185 2 27.4
2020-Jul-09 12:02 206 2 27.2
2020-Jul-09 11:57 214 2 27.1
2020-Jul-09 11:52 205 3 26.8
2020-Jul-09 11:47 191 1 26.8
2020-Jul-09 11:42 169 4 26.6
2020-Jul-09 11:37 202 2 26.4
2020-Jul-09 11:32 195 2 26.2
2020-Jul-09 11:27 221 1 26.1
2020-Jul-09 11:22 178 1 26.1
2020-Jul-09 11:17 170 3 26.1
2020-Jul-09 11:12 196 2 26.1
2020-Jul-09 11:07 190 1 26.1
2020-Jul-09 11:02 218 1 26.1
2020-Jul-09 10:57 209 0 26.1
2020-Jul-09 10:52 188 0 26.1
2020-Jul-09 10:49 171 2 26.1
2020-Jul-09 10:47 208 1 26.1
2020-Jul-09 10:42 202 2 26.1
2020-Jul-09 10:37 180 1 26.1
2020-Jul-09 10:34 199 3 26.1
2020-Jul-09 10:32 215 3 26.1
2020-Jul-09 10:27 171 2 26.1
2020-Jul-09 10:24 199 2 26.1
2020-Jul-09 10:22 195 3 26.1
2020-Jul-09 10:17 199 3 26.1
2020-Jul-09 10:14 216 1 26.2
2020-Jul-09 10:12 199 2 26.1
2020-Jul-09 10:07 216 1 26.2
2020-Jul-09 10:02 176 2 26.3
2020-Jul-09 09:57 192 2 26.4
2020-Jul-09 09:52 172 2 26.4
2020-Jul-09 09:47 191 2 26.5
2020-Jul-09 09:42 173 2 26.5
2020-Jul-09 09:37 201 2 26.7
2020-Jul-09 09:32 185 2 26.8
2020-Jul-09 09:27 190 2 26.8
2020-Jul-09 09:22 201 2 26.8
2020-Jul-09 09:17 185 2 26.9
2020-Jul-09 09:12 202 0 26.9
2020-Jul-09 09:07 202 2 26.9
2020-Jul-09 09:02 202 1 27.0
2020-Jul-09 08:57 205 2 27.0
2020-Jul-09 08:52 203 2 27.0
2020-Jul-09 08:47 198 2 27.1
2020-Jul-09 08:42 205 2 27.1
2020-Jul-09 08:37 198 2 27.2
2020-Jul-09 08:32 163 1 27.3
2020-Jul-09 08:27 200 1 27.3
2020-Jul-09 08:22 213 2 27.3
2020-Jul-09 08:17 199 2 27.3
2020-Jul-09 08:12 200 1 27.3
2020-Jul-09 08:07 195 2 27.3
2020-Jul-09 08:02 199 3 27.3
2020-Jul-09 07:56 198 3 27.3
2020-Jul-09 07:51 199 2 27.4
2020-Jul-09 07:46 207 1 27.4
2020-Jul-09 07:41 196 2 27.4
2020-Jul-09 07:36 200 2 27.5
2020-Jul-09 07:31 142 1 27.5
2020-Jul-09 07:26 167 2 27.5
2020-Jul-09 07:21 186 2 27.5
2020-Jul-09 07:16 190 1 27.5
2020-Jul-09 07:11 185 1 27.4
2020-Jul-09 07:10 186 2 27.5
2020-Jul-09 07:06 180 0 27.4
2020-Jul-09 07:01 202 2 27.4
2020-Jul-09 06:56 198 2 27.4
2020-Jul-09 06:51 193 1 27.4
2020-Jul-09 06:46 190 1 27.5
2020-Jul-09 06:41 184 1 27.5
2020-Jul-09 06:36 179 1 27.6
2020-Jul-09 06:31 185 1 27.6
2020-Jul-09 06:26 202 1 27.6
2020-Jul-09 06:21 176 0 27.7
2020-Jul-09 06:16 208 1 27.7
2020-Jul-09 06:11 198 0 27.8
2020-Jul-09 06:06 182 1 28.0
2020-Jul-09 06:01 291 0 27.9
2020-Jul-09 05:56 017 0 27.9
2020-Jul-09 05:51 191 1 27.7
2020-Jul-09 05:46 225 0 27.9
2020-Jul-09 05:41 193 0 28.1
2020-Jul-09 05:36 113 1 28.2
2020-Jul-09 05:31 117 1 28.3
2020-Jul-09 05:26 215 0 28.3
2020-Jul-09 05:21 152 0 28.4
2020-Jul-09 05:16 158 0 28.4
2020-Jul-09 05:11 026 1 28.6
2020-Jul-09 05:06 079 1 28.6
2020-Jul-09 05:01 040 0 28.6
2020-Jul-09 04:56 125 1 28.6
2020-Jul-09 04:51 153 1 28.6
2020-Jul-09 04:46 219 0 28.6
2020-Jul-09 04:41 210 0 28.7
2020-Jul-09 04:36 143 1 28.8
2020-Jul-09 04:31 192 1 28.8
2020-Jul-09 04:26 122 2 28.9
2020-Jul-09 04:21 163 0 29.0
2020-Jul-09 04:16 129 0 29.0
2020-Jul-09 04:11 172 1 29.0
2020-Jul-09 04:06 251 0 29.1
2020-Jul-09 04:01 341 0 29.2
2020-Jul-09 03:56 172 1 29.3
2020-Jul-09 03:51 032 0 29.3
2020-Jul-09 03:46 241 0 29.3
2020-Jul-09 03:41 196 0 29.2
2020-Jul-09 03:36 148 0 29.3
2020-Jul-09 03:31 198 0 29.3
2020-Jul-09 03:26 145 0 29.3
2020-Jul-09 03:21 160 1 29.4
2020-Jul-09 03:16 198 0 29.5
2020-Jul-09 03:11 011 0 29.6
2020-Jul-09 03:06 036 1 29.5
2020-Jul-09 03:01 242 1 29.6
2020-Jul-09 02:55 240 0 29.6
2020-Jul-09 02:50 128 0 29.5
2020-Jul-09 02:45 191 0 29.5
2020-Jul-09 02:40 246 0 29.5
2020-Jul-09 02:35 275 1 29.5
2020-Jul-09 02:30 163 1 29.4
2020-Jul-09 02:25 196 1 29.5
2020-Jul-09 02:20 059 0 29.7
2020-Jul-09 02:15 246 0 29.6
2020-Jul-09 02:10 185 0 29.7
2020-Jul-09 02:05 221 0 29.6
2020-Jul-09 02:00 348 0 29.7
2020-Jul-09 01:55 295 0 29.8
2020-Jul-09 01:50 137 0 29.8
2020-Jul-09 01:45 028 1 29.9
2020-Jul-09 01:40 056 0 29.8
2020-Jul-09 01:35 054 0 29.9
2020-Jul-09 01:30 174 0 29.8
2020-Jul-09 01:25 359 0 29.9
2020-Jul-09 01:20 033 0 30.1
2020-Jul-09 01:15 344 0 30.0
2020-Jul-09 01:10 015 0 30.3
2020-Jul-09 01:05 347 1 30.3
2020-Jul-09 01:00 099 0 30.5
2020-Jul-09 00:45 169 0 30.6
2020-Jul-09 00:40 248 0 30.6
2020-Jul-09 00:35 219 0 30.5
2020-Jul-09 00:30 127 0 30.6
2020-Jul-09 00:25 286 0 30.7
2020-Jul-09 00:20 166 0 30.7
2020-Jul-09 00:15 178 0 30.5
2020-Jul-09 00:10 189 0 30.5
2020-Jul-09 00:05 220 0 30.4
2020-Jul-09 00:00 158 0 30.6
2020-Jul-08 23:55 308 0 30.5
2020-Jul-08 23:50 276 1 30.5
2020-Jul-08 23:45 357 0 30.6
2020-Jul-08 23:40 181 0 30.5
2020-Jul-08 23:35 307 1 30.4
2020-Jul-08 23:30 294 3 30.7
2020-Jul-08 23:25 013 0 30.7
2020-Jul-08 23:20 284 1 30.7
2020-Jul-08 23:15 325 3 30.8
2020-Jul-08 23:10 337 1 31.2
2020-Jul-08 23:05 105 0 31.5
2020-Jul-08 23:00 280 0 31.5
2020-Jul-08 22:55 286 2 31.8
2020-Jul-08 22:50 338 2 31.9
2020-Jul-08 22:45 289 4 31.8
2020-Jul-08 22:40 047 2 32.3
2020-Jul-08 22:35 118 1 32.4
2020-Jul-08 22:30 288 1 32.1
2020-Jul-08 22:25 061 2 31.9
2020-Jul-08 22:20 300 1 32.1
2020-Jul-08 22:15 249 1 32.6
2020-Jul-08 22:10 031 2 32.6
2020-Jul-08 22:05 108 1 32.6
2020-Jul-08 22:00 122 2 32.0
2020-Jul-08 21:54 065 1 31.8
2020-Jul-08 21:49 314 4 32.3
2020-Jul-08 21:44 038 2 32.2
2020-Jul-08 21:39 003 2 32.3
2020-Jul-08 21:34 339 1 32.6
2020-Jul-08 21:29 065 3 32.6
2020-Jul-08 21:24 314 1 32.4
2020-Jul-08 21:19 050 1 32.3
2020-Jul-08 21:14 340 2 32.0
2020-Jul-08 21:09 036 2 32.3
2020-Jul-08 21:04 312 4 31.8
2020-Jul-08 20:59 003 4 31.8
2020-Jul-08 20:54 042 2 31.8
2020-Jul-08 20:49 110 3 31.8
2020-Jul-08 20:44 305 2 31.3
2020-Jul-08 20:39 065 1 31.1
2020-Jul-08 20:34 323 1 30.2
2020-Jul-08 20:29 288 3 29.7
2020-Jul-08 20:24 319 1 29.6
2020-Jul-08 20:19 345 1 29.4
2020-Jul-08 20:14 334 2 29.2
2020-Jul-08 20:09 332 2 29.1
2020-Jul-08 20:04 356 1 29.1
2020-Jul-08 19:59 277 2 29.0
2020-Jul-08 19:54 184 1 29.0
2020-Jul-08 19:49 262 0 29.0
2020-Jul-08 19:44 328 2 28.8
2020-Jul-08 19:39 261 0 28.7
2020-Jul-08 19:34 016 0 28.6
2020-Jul-08 19:29 049 1 28.3
2020-Jul-08 19:24 332 0 28.1
2020-Jul-08 19:19 320 0 27.9
2020-Jul-08 19:14 318 2 27.7
2020-Jul-08 19:09 296 0 27.5
2020-Jul-08 19:04 007 0 27.2
2020-Jul-08 18:59 338 0 27.1
2020-Jul-08 18:54 298 0 26.9
2020-Jul-08 18:49 347 0 26.6
2020-Jul-08 18:44 355 0 26.5
2020-Jul-08 18:39 313 3 26.3
2020-Jul-08 18:34 295 2 26.1
2020-Jul-08 18:29 316 0 26.1
2020-Jul-08 18:24 290 1 26.1
2020-Jul-08 18:19 291 2 26.0
2020-Jul-08 18:14 305 1 25.9
2020-Jul-08 18:09 301 0 25.8
2020-Jul-08 18:04 305 0 25.5
2020-Jul-08 17:59 277 3 25.4
2020-Jul-08 17:54 024 1 25.5
2020-Jul-08 17:49 326 2 25.6
2020-Jul-08 17:44 329 3 25.5
2020-Jul-08 17:39 032 2 25.9
2020-Jul-08 17:34 151 6 26.3
2020-Jul-08 17:29 168 10 27.1
2020-Jul-08 17:24 118 5 30.0
2020-Jul-08 17:19 030 2 31.8
2020-Jul-08 17:14 021 1 31.8
2020-Jul-08 17:09 359 2 32.5
2020-Jul-08 17:04 328 3 32.6
2020-Jul-08 16:59 354 4 32.9
2020-Jul-08 16:53 020 1 33.1
2020-Jul-08 16:48 044 4 33.1
2020-Jul-08 16:43 355 5 32.6
2020-Jul-08 16:38 060 2 32.7
2020-Jul-08 16:33 023 3 33.5
2020-Jul-08 16:28 024 2 33.1
2020-Jul-08 16:23 031 3 33.0
2020-Jul-08 16:18 017 3 32.7
2020-Jul-08 16:13 346 1 32.9
2020-Jul-08 16:08 333 2 32.9
2020-Jul-08 16:03 015 3 33.1
2020-Jul-08 15:58 044 6 32.8
2020-Jul-08 15:53 311 3 33.0
2020-Jul-08 15:48 051 3 32.9
2020-Jul-08 15:43 016 3 32.9
2020-Jul-08 15:38 049 3 33.0
2020-Jul-08 15:33 355 2 32.9
2020-Jul-08 15:28 053 5 33.1
2020-Jul-08 15:23 013 3 33.0
2020-Jul-08 15:18 298 2 32.8
2020-Jul-08 15:13 330 1 33.1
2020-Jul-08 15:08 323 2 32.8
2020-Jul-08 15:03 020 0 32.8
2020-Jul-08 14:58 151 1 32.4
2020-Jul-08 14:53 034 4 32.5
2020-Jul-08 14:48 007 1 32.6
2020-Jul-08 14:43 333 5 32.2
2020-Jul-08 14:38 049 2 32.2
2020-Jul-08 14:33 017 2 31.8
2020-Jul-08 14:28 012 1 31.8
2020-Jul-08 14:23 031 3 32.1
2020-Jul-08 14:18 038 1 32.0
2020-Jul-08 14:13 127 0 31.8
2020-Jul-08 14:08 345 0 31.6
2020-Jul-08 14:03 029 2 31.8
2020-Jul-08 13:58 326 1 31.2
2020-Jul-08 13:53 341 2 31.0
2020-Jul-08 13:48 047 0 31.7
2020-Jul-08 13:43 057 1 31.8
2020-Jul-08 13:38 214 0 31.5
2020-Jul-08 13:33 326 1 31.1
2020-Jul-08 13:28 020 2 31.2
2020-Jul-08 13:23 141 1 31.2
2020-Jul-08 13:18 032 2 31.2
2020-Jul-08 13:13 311 2 30.8
2020-Jul-08 13:08 315 1 31.2
2020-Jul-08 13:03 003 0 30.9
2020-Jul-08 12:58 325 2 31.1
2020-Jul-08 12:53 116 1 30.9
2020-Jul-08 12:48 334 2 30.7
2020-Jul-08 12:43 347 2 30.4
2020-Jul-08 12:38 357 1 30.7
2020-Jul-08 12:33 108 1 30.3
2020-Jul-08 12:28 141 0 30.1
2020-Jul-08 12:23 144 0 30.1
2020-Jul-08 12:18 173 0 30.0
2020-Jul-08 12:13 180 1 29.8
2020-Jul-08 12:08 153 0 29.7
2020-Jul-08 12:03 186 0 29.4
2020-Jul-08 11:58 113 1 29.0
2020-Jul-08 11:52 051 1 28.8
2020-Jul-08 11:47 359 0 28.4
2020-Jul-08 11:42 265 0 28.1
2020-Jul-08 11:37 271 0 27.8
2020-Jul-08 11:32 348 1 27.6
2020-Jul-08 11:31 285 0 27.0
2020-Jul-08 11:27 332 0 27.5
2020-Jul-08 11:26 337 0 26.8
2020-Jul-08 11:22 310 0 27.2
2020-Jul-08 11:21 355 0 26.7
2020-Jul-08 11:17 285 0 27.0
2020-Jul-08 11:12 337 0 26.8
2020-Jul-08 11:07 355 0 26.7
2020-Jul-08 11:02 350 0 26.7
2020-Jul-08 10:57 334 0 26.6
2020-Jul-08 10:52 218 0 26.6
2020-Jul-08 10:47 011 0 26.6
2020-Jul-08 10:42 011 0 26.6
2020-Jul-08 10:37 090 0 26.6
2020-Jul-08 10:34 340 0 26.6
2020-Jul-08 10:32 228 1 26.7
2020-Jul-08 10:29 028 0 26.7
2020-Jul-08 10:27 342 1 26.6
2020-Jul-08 10:22 237 0 26.6
2020-Jul-08 10:19 335 0 26.7
2020-Jul-08 10:17 227 1 26.6
2020-Jul-08 10:14 302 1 26.8
2020-Jul-08 10:12 011 0 26.6
2020-Jul-08 10:09 093 0 26.7
2020-Jul-08 10:07 301 0 26.5
2020-Jul-08 10:04 141 0 26.8
2020-Jul-08 10:02 340 0 26.6
2020-Jul-08 09:57 028 0 26.7
2020-Jul-08 09:52 341 0 26.7
2020-Jul-08 09:47 335 0 26.7
2020-Jul-08 09:42 302 1 26.8
2020-Jul-08 09:37 093 0 26.7
2020-Jul-08 09:32 141 0 26.8
2020-Jul-08 09:27 031 0 26.9
2020-Jul-08 09:22 139 0 26.8
2020-Jul-08 09:17 279 1 27.0
2020-Jul-08 09:12 003 0 27.0
2020-Jul-08 09:07 359 0 26.9
2020-Jul-08 09:02 346 0 27.1
2020-Jul-08 08:57 165 0 27.0
2020-Jul-08 08:52 179 0 27.1
2020-Jul-08 08:47 174 0 27.0
2020-Jul-08 08:42 146 0 26.9
2020-Jul-08 08:37 154 0 26.9
2020-Jul-08 08:32 170 0 27.0
2020-Jul-08 08:27 183 0 27.1
2020-Jul-08 08:22 173 0 27.2
2020-Jul-08 08:17 024 0 27.2
2020-Jul-08 08:12 354 0 27.3
2020-Jul-08 08:07 133 0 27.2
2020-Jul-08 08:02 217 0 27.2
2020-Jul-08 07:57 191 1 27.1
2020-Jul-08 07:52 087 0 27.2
2020-Jul-08 07:47 181 0 27.1
2020-Jul-08 07:42 309 0 27.1
2020-Jul-08 07:37 067 1 27.1
2020-Jul-08 07:32 27.2
2020-Jul-08 07:27 230 0 27.2
2020-Jul-08 07:22 162 0 27.2
2020-Jul-08 07:17 285 1 27.2
2020-Jul-08 07:12 346 0 27.3
2020-Jul-08 07:07 27.4
2020-Jul-08 07:02 327 0 27.4
2020-Jul-08 06:56 188 0 27.5
2020-Jul-08 06:51 158 0 27.5
2020-Jul-08 06:46 211 1 27.6
2020-Jul-08 06:41 194 0 27.6
2020-Jul-08 06:36 155 0 27.7
2020-Jul-08 06:31 191 0 27.6
2020-Jul-08 06:26 208 0 27.6
2020-Jul-08 06:21 212 0 27.6
2020-Jul-08 06:16 205 0 27.6
2020-Jul-08 06:11 207 0 27.6
2020-Jul-08 06:06 224 0 27.6
2020-Jul-08 06:01 154 0 27.6
2020-Jul-08 05:56 144 0 27.6
2020-Jul-08 05:51 222 0 27.6
2020-Jul-08 05:46 155 0 27.6
2020-Jul-08 05:41 073 0 27.7
2020-Jul-08 05:36 017 0 27.6
2020-Jul-08 05:31 251 1 27.5
2020-Jul-08 05:26 352 0 27.4
2020-Jul-08 05:21 013 0 27.5
2020-Jul-08 05:16 011 0 27.6
2020-Jul-08 05:11 095 0 27.6
2020-Jul-08 05:06 356 0 27.6
2020-Jul-08 05:01 348 1 27.6
2020-Jul-08 04:56 043 0 27.7
2020-Jul-08 04:51 346 0 27.7
2020-Jul-08 04:46 345 0 27.6
2020-Jul-08 04:41 319 0 27.6
2020-Jul-08 04:36 026 0 27.8
2020-Jul-08 04:31 357 0 27.8
2020-Jul-08 04:26 355 0 27.8
2020-Jul-08 04:21 295 0 27.8
2020-Jul-08 04:18 190 3 28.5
2020-Jul-08 04:16 005 0 27.8
2020-Jul-08 04:11 320 0 28.0
2020-Jul-08 04:06 184 0 28.0
2020-Jul-08 04:03 195 4 28.6
2020-Jul-08 04:01 252 0 28.0
2020-Jul-08 03:56 218 0 28.0
2020-Jul-08 03:51 103 0 28.1
2020-Jul-08 03:46 146 0 28.1
2020-Jul-08 03:41 196 3 28.0
2020-Jul-08 03:36 032 1 28.1
2020-Jul-08 03:31 126 1 28.2
2020-Jul-08 03:26 195 2 28.2
2020-Jul-08 03:21 174 1 28.2
2020-Jul-08 03:16 168 2 28.2
2020-Jul-08 03:11 182 2 28.3
2020-Jul-08 03:06 209 1 28.3
2020-Jul-08 03:01 207 1 28.3